This demonstration page uses our WeatherBlox Daily Observations layout. Learn more.

Left ArrowRight Arrow

34.02893, -84.19858

Hourly Observations for February 27, 2017

Temp ( °F °C ) Dew Point ( °F °C ) Humidity (%) Winds ( mph kmh ) Pressure ( in mb ) Visibility ( mi km ) Precip ( " mm )
12:53 am 00:53 Cloudy 47 8.3 23 -5 39 39 SE 6 9 30.22 1024 10 16 0.00 0.00
1:53 am 01:53 Clear 44 6.7 24 -4.4 45 45 Calm 30.22 1024 10 16 0.00 0.00
2:53 am 02:53 Clear 47 8.3 22 -5.6 37 37 SSE 3 6 30.20 1023 10 16 0.00 0.00
3:53 am 03:53 Clear 46 7.8 23 -5 40 40 Calm 30.22 1023 10 16 0.00 0.00
4:53 am 04:53 Clear 48 8.9 26 -3.3 42 42 Calm 30.22 1024 10 16 0.00 0.00
5:53 am 05:53 Clear 47 8.3 25 -3.9 42 42 ENE 5 7 30.25 1025 10 16 0.00 0.00
6:53 am 06:53 Clear 48 8.9 25 -3.9 41 41 ENE 5 7 30.28 1025 10 16 0.00 0.00
7:53 am 07:53 Sunny 48 8.9 25 -3.9 41 41 Calm 30.31 1027 10 16 0.00 0.00
8:53 am 08:53 Sunny 48 8.9 27 -2.8 44 44 ESE 6 9 30.30 1026 10 16 0.00 0.00
9:53 am 09:53 Sunny 51 10.6 27 -2.8 39 39 VRB 3 6 30.29 1026 10 16 0.00 0.00
10:53 am 10:53 Mostly Sunny 53 11.7 27 -2.8 37 37 VRB 6 9 30.32 1027 10 16 0.00 0.00
11:53 am 11:53 Mostly Cloudy 55 12.8 29 -1.7 37 37 N 7 11 30.38 1029 10 16 0.00 0.00
12:53 pm 12:53 Cloudy 54 12.2 29 -1.7 38 38 NNE 5 7 30.36 1028 10 16 0.00 0.00
1:53 pm 13:53 Cloudy with Light Rain 54 12.2 30 -1.1 40 40 VRB 3 6 30.34 1027 10 16 0.00 0.03
2:53 pm 14:53 Cloudy with Light Rain 48 8.9 40 4.4 74 74 ESE 10 17 30.26 1025 6 10 0.03 0.76
3:53 pm 15:53 Mostly Cloudy 50 10 41 5 71 71 NNW 7 11 30.29 1026 10 16 0.00 0.03
4:53 pm 16:53 Sunny 51 10.6 43 6.1 74 74 VRB 3 6 30.27 1025 10 16 0.00 0.00
5:53 pm 17:53 Sunny 52 11.1 45 7.2 77 77 Calm 30.27 1025 10 16 0.00 0.00
6:53 pm 18:53 Clear 51 10.6 44 6.7 77 77 ENE 5 7 30.26 1025 10 16 0.00 0.00
7:53 pm 19:53 Clear 49 9.4 44 6.7 83 83 Calm 30.28 1026 10 16 0.00 0.00
8:53 pm 20:53 Clear 50 10 45 7.2 83 83 VRB 3 6 30.29 1026 10 16 0.00 0.00
9:53 pm 21:53 Clear 50 10 44 6.7 80 80 Calm 30.28 1025 10 16 0.00 0.00
10:53 pm 22:53 Clear 49 9.4 43 6.1 80 80 Calm 30.29 1026 10 16 0.00 0.00
11:17 pm 23:17 Mostly Cloudy 48 8.9 43 6.1 83 83 Calm 30.30 1026 10 16 0.00 0.00
11:53 pm 23:53 Cloudy 50 10 44 6.7 80 80 Calm 30.29 1026 10 16 0.00 0.00

Powered by AerisWeather